[[{"header":{"parameterUnit":"m.s-1","parameterCategory":1,"la1":30.2991,"la2":30.254,"lo1":-89.0895,"lo2":-89.0444,"dy":0.0017,"dx":0.0017,"nx":28,"ny":28,"refTime":"2025-01-16T09:00:00:Z","depth":0,"parameterNumber":2,"parameterNumberName":"U-component_of_WINDS"},"data":[0,0,0,0,0,0,0,0,0,0,0,0,0,0,0,0,0,0,0,0,0,0,0,0,0,0,0,0,0,0,0,0,0,0,0,0,0,0,0,0,0,0,0,0,0,0,0,0,0,0,0,0,0,0,0,0,0,0,-0.7143,-0.7143,0,-0.717,-0.717,-0.717,-0.7171,-0.7171,-0.7171,-0.717,-0.7198,-0.7199,-0.72,0,0,0,0,0,0,0,0,0,0,0,0,0,-0.7092,-0.7093,-0.7143,-0.7143,-0.7143,-0.717,-0.717,-0.717,-0.7171,-0.7171,-0.7171,-0.717,-0.7198,-0.7199,-0.7201,0,0,0,0,0,0,0,0,0,0,0,0,0,-0.7116,-0.7093,-0.7143,-0.7147,-0.7148,-0.717,-0.717,-0.7171,-0.7172,-0.7171,-0.7171,-0.717,-0.7198,-0.7199,-0.7201,-0.722,0,0,-0.7206,-0.7206,0,0,0,0,0,0,0,0,-0.7115,-0.7118,-0.7146,-0.7147,-0.7147,-0.7167,-0.7162,-0.7187,-0.7172,-0.7162,-0.717,-0.717,-0.7188,-0.7191,-0.7197,-0.7222,-0.7223,-0.7206,-0.7207,-0.7207,-0.7208,0,0,0,0,0,0,0,-0.7113,-0.7117,-0.7153,-0.7146,-0.7147,-0.7148,-0.7151,-0.7167,-0.7178,-0.7163,-0.7163,-0.7167,-0.7189,-0.7195,-0.7197,-0.7223,-0.7206,-0.7207,-0.7208,-0.7209,-0.7266,-0.7266,0,0,0,0,0,0,-0.711,-0.7115,-0.7152,-0.7154,-0.7129,-0.7149,-0.7152,-0.7161,-0.7178,-0.718,-0.7167,-0.7166,-0.7193,-0.7196,-0.7198,-0.7223,-0.7207,-0.7209,-0.721,-0.7265,-0.7266,-0.7266,0,0,0,0,0,0,-0.7109,-0.7114,-0.7151,-0.7135,-0.714,-0.715,-0.716,-0.7162,-0.7168,-0.718,-0.7182,-0.7172,-0.7192,-0.7196,-0.7215,-0.7224,-0.7209,-0.7211,-0.7264,-0.7265,-0.7266,-0.7271,0,0,0,0,0,0,-0.7108,-0.7113,-0.7121,-0.7135,-0.714,-0.7167,-0.7161,-0.7163,-0.7171,-0.7171,-0.7185,-0.7187,-0.7192,-0.7212,-0.7216,-0.7226,-0.7212,-0.7264,-0.7265,-0.7266,-0.727,-0.7272,-0.7274,0,0,0,0,0,-0.7106,-0.7121,-0.7121,-0.7126,-0.715,-0.7168,-0.7171,-0.7177,-0.7172,-0.718,-0.7187,-0.7187,-0.7222,-0.7214,-0.7219,-0.7229,-0.7263,-0.7264,-0.7266,-0.727,-0.7272,-0.7274,0,0,0,0,0,0,-0.7108,-0.7123,-0.7123,-0.7143,-0.7154,-0.7168,-0.7178,-0.7179,-0.7191,-0.719,-0.7196,-0.72,-0.7218,-0.7225,-0.7217,-0.7248,-0.7242,-0.7244,-0.7243,-0.7246,-0.7247,-0.7246,-0.7213,0,0,0,0,0,-0.7111,-0.7124,-0.7136,-0.7153,-0.7158,-0.7167,-0.7175,-0.7178,-0.719,-0.7195,-0.7204,-0.7215,-0.7228,-0.7237,-0.725,-0.7271,-0.7274,-0.728,-0.7282,-0.7283,-0.7285,-0.7297,-0.7299,-0.727,-0.727,-0.727,0,0,-0.7117,-0.7126,-0.7134,-0.7154,-0.7162,-0.7176,-0.7171,-0.7186,-0.7196,-0.7197,-0.7215,-0.7222,-0.7235,-0.7255,-0.7264,-0.7261,-0.7294,-0.7285,-0.7285,-0.7287,-0.7298,-0.7301,-0.7303,-0.7271,-0.7271,-0.7271,0,0,-0.7134,-0.7143,-0.7158,-0.7167,-0.718,-0.7186,-0.719,-0.7203,-0.7208,-0.7226,-0.7227,-0.7239,-0.7262,-0.7272,-0.728,-0.7301,-0.7301,-0.7305,-0.7314,-0.7325,-0.7327,-0.733,-0.7338,-0.734,-0.7307,-0.7307,-0.7307,0,-0.714,-0.7161,-0.7166,-0.718,-0.7189,-0.719,-0.7205,-0.7214,-0.7231,-0.7237,-0.7233,-0.7262,-0.7271,-0.7293,-0.7298,-0.7304,-0.7309,-0.7303,-0.7327,-0.7329,-0.7331,-0.7339,-0.7341,-0.7307,-0.7307,-0.7307,-0.7307,0,-0.7167,-0.7181,-0.7192,-0.7208,-0.7218,-0.7233,-0.724,-0.7249,-0.7251,-0.7258,-0.7276,-0.7287,-0.7302,-0.7308,-0.731,-0.733,-0.7328,-0.7325,-0.7319,-0.7334,-0.7341,-0.7344,-0.7308,-0.7307,-0.7307,-0.7307,0,0,-0.7188,-0.7207,-0.721,-0.7218,-0.7233,-0.7244,-0.7259,-0.7274,-0.7282,-0.7293,-0.7306,-0.7325,-0.7323,-0.7332,-0.7335,-0.7345,-0.7361,-0.7341,-0.7342,-0.7345,-0.7385,-0.7387,-0.7391,-0.7361,-0.7362,-0.7362,-0.7384,0,-0.7208,-0.7235,-0.7239,-0.7263,-0.7276,-0.7277,-0.729,-0.7301,-0.7307,-0.7319,-0.7325,-0.7339,-0.7335,-0.734,-0.735,-0.7357,-0.737,-0.7356,-0.7374,-0.7374,-0.7371,-0.7394,-0.7397,-0.7417,-0.7387,-0.7387,-0.7388,0,-0.7235,-0.7247,-0.7272,-0.7285,-0.7291,-0.7302,-0.7317,-0.7328,-0.734,-0.7343,-0.7353,-0.7355,-0.7371,-0.7363,-0.7385,-0.7375,-0.7383,-0.7388,-0.7388,-0.7391,-0.7382,-0.7398,-0.7423,-0.7426,-0.7392,-0.7392,-0.7391,0,-0.7248,-0.7271,-0.7289,-0.7295,-0.731,-0.7319,-0.7325,-0.7337,-0.7345,-0.7358,-0.7363,-0.7377,-0.7385,-0.7396,-0.7401,-0.7395,-0.7423,-0.7415,-0.7426,-0.7426,-0.7433,-0.7432,-0.746,-0.7436,-0.7436,-0.7436,-0.7436,0,-0.7271,-0.7286,-0.7295,-0.7306,-0.7323,-0.7328,-0.7345,-0.7352,-0.7362,-0.7374,-0.7375,-0.7387,-0.7393,-0.7406,-0.741,-0.7428,-0.7431,-0.7435,-0.7436,-0.7435,-0.7435,-0.7441,-0.744,-0.7437,-0.7437,-0.7437,-0.7437,0,-0.7289,-0.7295,-0.7315,-0.7328,-0.7331,-0.7344,-0.7355,-0.7365,-0.7371,-0.7387,-0.7391,-0.74,-0.7414,-0.7421,-0.7439,-0.7442,-0.7462,-0.7462,-0.7458,-0.7459,-0.7469,-0.7469,-0.7503,-0.7507,-0.748,-0.748,-0.748,0,-0.7303,-0.7315,-0.7329,-0.7337,-0.7344,-0.7358,-0.7367,-0.7372,-0.7381,-0.7395,-0.7404,-0.7419,-0.7431,-0.7455,-0.7463,-0.7477,-0.7477,-0.7488,-0.748,-0.7478,-0.7478,-0.7478,-0.7479,-0.749,-0.749,-0.7491,-0.7491,0,-0.7328,-0.7331,-0.7343,-0.7357,-0.7368,-0.7379,-0.739,-0.7396,-0.7403,-0.7414,-0.7429,-0.7438,-0.7457,-0.7471,-0.7486,-0.7493,-0.7493,-0.7493,-0.7497,-0.7496,-0.7494,-0.7496,-0.7463,-0.7493,-0.7493,-0.7492,-0.7492,-0.7492,-0.7345,-0.7356,-0.7367,-0.7381,-0.739,-0.74,-0.7411,-0.7418,-0.7431,-0.7446,-0.7448,-0.7465,-0.7476,-0.7495,-0.7503,-0.7515,-0.7513,-0.7517,-0.7519,-0.752,-0.7521,-0.7491,-0.7518,-0.7518,-0.7518,-0.7518,-0.7518,0,-0.7371,-0.7378,-0.7391,-0.7406,-0.7417,-0.7416,-0.7428,-0.7438,-0.7452,-0.7462,-0.7474,-0.7492,-0.7506,-0.7515,-0.7529,-0.7537,-0.7538,-0.7541,-0.7541,-0.7543,-0.7522,-0.7518,-0.754,-0.754,-0.754,-0.754,-0.754,-0.754,-0.7385,-0.7403,-0.7407,-0.743,-0.7437,-0.7453,-0.746,-0.7469,-0.7477,-0.7497,-0.7509,-0.7514,-0.7524,-0.7539,-0.7552,-0.7554,-0.756,-0.7563,-0.7565,-0.7546,-0.7544,-0.7542,-0.7538,-0.7564,-0.7564,-0.7585,-0.7585,-0.7585]},{"header":{"parameterUnit":"m.s-1","parameterCategory":1,"la1":30.2991,"la2":30.254,"lo1":-89.0895,"lo2":-89.0444,"dy":0.0017,"dx":0.0017,"nx":28,"ny":28,"refTime":"2025-01-16T09:00:00:Z","depth":0,"parameterNumber":3,"parameterNumberName":"V-component_of_WINDS"},"data":[0,0,0,0,0,0,0,0,0,0,0,0,0,0,0,0,0,0,0,0,0,0,0,0,0,0,0,0,0,0,0,0,0,0,0,0,0,0,0,0,0,0,0,0,0,0,0,0,0,0,0,0,0,0,0,0,0,0,-1.7126,-1.7127,0,-1.7222,-1.7223,-1.7224,-1.7224,-1.7223,-1.7222,-1.7221,-1.7318,-1.7322,-1.7325,0,0,0,0,0,0,0,0,0,0,0,0,0,-1.6939,-1.6943,-1.7125,-1.7127,-1.7128,-1.7222,-1.7223,-1.7225,-1.7225,-1.7223,-1.7222,-1.722,-1.7317,-1.7321,-1.7326,0,0,0,0,0,0,0,0,0,0,0,0,0,-1.7027,-1.6944,-1.7125,-1.7139,-1.7141,-1.7222,-1.7223,-1.7225,-1.7225,-1.7223,-1.7221,-1.7219,-1.7315,-1.7321,-1.7326,-1.7399,0,0,-1.7344,-1.7346,0,0,0,0,0,0,0,0,-1.7022,-1.7033,-1.7136,-1.7138,-1.7141,-1.7209,-1.7193,-1.7283,-1.7225,-1.7193,-1.7221,-1.7219,-1.7283,-1.7291,-1.7314,-1.7403,-1.7407,-1.7344,-1.7347,-1.735,-1.7351,0,0,0,0,0,0,0,-1.7016,-1.7029,-1.7164,-1.7137,-1.7141,-1.714,-1.7151,-1.721,-1.7247,-1.7196,-1.7196,-1.7208,-1.7284,-1.7308,-1.7316,-1.7409,-1.7344,-1.7349,-1.7352,-1.7355,-1.7563,-1.7565,0,0,0,0,0,0,-1.7007,-1.7024,-1.7161,-1.7167,-1.7076,-1.7145,-1.7157,-1.7189,-1.7247,-1.7254,-1.7209,-1.7207,-1.7299,-1.7309,-1.7319,-1.7409,-1.735,-1.7355,-1.7358,-1.7561,-1.7564,-1.7566,0,0,0,0,0,0,-1.7003,-1.7019,-1.7157,-1.7096,-1.7113,-1.715,-1.7187,-1.7192,-1.7216,-1.7257,-1.7263,-1.7227,-1.7298,-1.7311,-1.7379,-1.7412,-1.7358,-1.7363,-1.7558,-1.7562,-1.7565,-1.7587,0,0,0,0,0,0,-1.6998,-1.7018,-1.7046,-1.7096,-1.7116,-1.7216,-1.7189,-1.7195,-1.7226,-1.7225,-1.7275,-1.7282,-1.7298,-1.7371,-1.7385,-1.7419,-1.7367,-1.7556,-1.756,-1.7564,-1.7583,-1.7591,-1.7597,0,0,0,0,0,-1.6991,-1.7048,-1.7047,-1.7064,-1.7152,-1.7217,-1.7229,-1.7247,-1.7229,-1.7257,-1.7283,-1.728,-1.7406,-1.7378,-1.7394,-1.743,-1.7554,-1.7559,-1.7564,-1.7581,-1.7589,-1.7596,0,0,0,0,0,0,-1.6999,-1.7054,-1.7055,-1.7129,-1.7169,-1.7217,-1.7254,-1.7255,-1.73,-1.7297,-1.7316,-1.7328,-1.7396,-1.7419,-1.7387,-1.7503,-1.7478,-1.7486,-1.7485,-1.7494,-1.75,-1.7493,-1.7372,0,0,0,0,0,-1.701,-1.7059,-1.7104,-1.7165,-1.7185,-1.7216,-1.7245,-1.7256,-1.7297,-1.7313,-1.7345,-1.7384,-1.7433,-1.7464,-1.7511,-1.7587,-1.7598,-1.7619,-1.7626,-1.7631,-1.7638,-1.768,-1.7691,-1.7582,-1.7582,-1.7582,0,0,-1.7032,-1.7068,-1.7098,-1.7168,-1.72,-1.725,-1.723,-1.7283,-1.7321,-1.7321,-1.7388,-1.7412,-1.7458,-1.753,-1.7563,-1.7552,-1.767,-1.7637,-1.7641,-1.7645,-1.7686,-1.7697,-1.7706,-1.7585,-1.7585,-1.7584,0,0,-1.7099,-1.7131,-1.7186,-1.7218,-1.7267,-1.7287,-1.73,-1.7349,-1.7366,-1.7433,-1.7434,-1.7478,-1.7561,-1.7594,-1.7622,-1.7701,-1.77,-1.7715,-1.775,-1.7791,-1.78,-1.7807,-1.7836,-1.7847,-1.7722,-1.7722,-1.7722,0,-1.712,-1.7196,-1.7214,-1.7268,-1.7299,-1.7303,-1.7359,-1.7389,-1.745,-1.7471,-1.7458,-1.7562,-1.7593,-1.7674,-1.7693,-1.7715,-1.7731,-1.771,-1.7797,-1.7805,-1.7812,-1.784,-1.7851,-1.7724,-1.7724,-1.7724,-1.7723,0,-1.722,-1.7272,-1.7311,-1.7371,-1.7406,-1.7461,-1.7487,-1.7521,-1.7528,-1.755,-1.7618,-1.7655,-1.771,-1.773,-1.7737,-1.7812,-1.7803,-1.7793,-1.7768,-1.7824,-1.7851,-1.7862,-1.7726,-1.7726,-1.7725,-1.7725,0,0,-1.7295,-1.7364,-1.7378,-1.7406,-1.746,-1.7501,-1.7556,-1.761,-1.7639,-1.768,-1.7727,-1.7798,-1.7789,-1.782,-1.7831,-1.7867,-1.7928,-1.7853,-1.7854,-1.7866,-1.8014,-1.8022,-1.8034,-1.7928,-1.793,-1.7932,-1.801,0,-1.7367,-1.7466,-1.7484,-1.757,-1.7618,-1.7623,-1.767,-1.7709,-1.773,-1.7775,-1.7798,-1.7848,-1.7832,-1.7851,-1.7887,-1.7913,-1.7958,-1.7908,-1.7972,-1.7974,-1.7961,-1.8047,-1.8056,-1.8128,-1.802,-1.8022,-1.8024,0,-1.7465,-1.7511,-1.7602,-1.765,-1.7671,-1.7714,-1.7766,-1.7808,-1.7851,-1.7865,-1.79,-1.7907,-1.7964,-1.7936,-1.8015,-1.798,-1.8007,-1.8024,-1.8027,-1.8034,-1.8003,-1.8058,-1.8152,-1.8163,-1.804,-1.8039,-1.8037,0,-1.7512,-1.7596,-1.7661,-1.7685,-1.7742,-1.7772,-1.7798,-1.7839,-1.7871,-1.7916,-1.7937,-1.7987,-1.8015,-1.8054,-1.8074,-1.8052,-1.8152,-1.8125,-1.8165,-1.8164,-1.8186,-1.8185,-1.8287,-1.8202,-1.8202,-1.8202,-1.8201,0,-1.7592,-1.7647,-1.7683,-1.7723,-1.7786,-1.7806,-1.7867,-1.7891,-1.7929,-1.7974,-1.798,-1.8022,-1.8046,-1.8091,-1.8107,-1.8171,-1.8183,-1.8195,-1.8199,-1.8195,-1.8194,-1.8214,-1.821,-1.8205,-1.8204,-1.8203,-1.8203,0,-1.7654,-1.768,-1.7752,-1.7801,-1.7815,-1.7859,-1.7901,-1.794,-1.7961,-1.8018,-1.8033,-1.8067,-1.812,-1.8145,-1.8211,-1.8221,-1.8294,-1.8294,-1.828,-1.8281,-1.832,-1.8316,-1.8439,-1.8456,-1.8359,-1.836,-1.8361,0,-1.7704,-1.7747,-1.7801,-1.7832,-1.7859,-1.7908,-1.7941,-1.7962,-1.7996,-1.8049,-1.8082,-1.8136,-1.8181,-1.8267,-1.8297,-1.8348,-1.8349,-1.8389,-1.8357,-1.8352,-1.8351,-1.8349,-1.8353,-1.8395,-1.8395,-1.8396,-1.8397,0,-1.779,-1.7801,-1.7848,-1.7901,-1.794,-1.7981,-1.8022,-1.8047,-1.8075,-1.8112,-1.8168,-1.8203,-1.8271,-1.8325,-1.8378,-1.8403,-1.8405,-1.8407,-1.8419,-1.8416,-1.8406,-1.8413,-1.8297,-1.8404,-1.8403,-1.8403,-1.8402,-1.8402,-1.7848,-1.7887,-1.7932,-1.7984,-1.8018,-1.8056,-1.8095,-1.8122,-1.8169,-1.8227,-1.8236,-1.8296,-1.8338,-1.841,-1.8437,-1.8484,-1.8474,-1.8491,-1.8496,-1.85,-1.8503,-1.8398,-1.8493,-1.8493,-1.8493,-1.8493,-1.8493,0,-1.7935,-1.7964,-1.8013,-1.807,-1.8112,-1.811,-1.8156,-1.819,-1.8243,-1.8283,-1.8327,-1.8391,-1.8443,-1.8478,-1.8531,-1.8562,-1.8564,-1.8575,-1.8573,-1.8579,-1.8508,-1.8493,-1.8572,-1.8572,-1.8572,-1.8572,-1.8572,-1.8572,-1.7986,-1.8052,-1.8068,-1.815,-1.8179,-1.8238,-1.8264,-1.8299,-1.8331,-1.8403,-1.8447,-1.8469,-1.8507,-1.8563,-1.8611,-1.862,-1.8639,-1.8651,-1.8659,-1.8592,-1.8584,-1.8576,-1.8562,-1.8655,-1.8655,-1.8727,-1.8728,-1.8728]}]]